CW1172 Weather Reports


Display with metric or nautical units.
time (UTC)temp
F
wind
direction
speed
MPH
gust
MPH
rain 1hr
in
rain 24hr
in
rain mn
in
humidity
%
barometer
mb
20260901114519 67 360 0.0 0.0 0.00 0.00 0.00 72 1008.9
20260901113017 68 233 0.0 0.0 0.00 0.00 0.00 72 1008.8
20260901111517 68 250 0.0 0.0 0.00 0.00 0.00 74 1008.6
20260901110017 68 234 0.0 0.0 0.00 0.00 0.00 74 1008.5
20260901104515 68 257 0.0 0.0 0.00 0.00 0.00 74 1008.5
20260901103014 69 209 0.0 0.0 0.00 0.00 0.00 70 1008.4
20260901101513 69 201 0.0 0.0 0.00 0.00 0.00 71 1008.2
20260901100012 69 181 0.0 0.0 0.00 0.00 0.00 71 1008.1
20260901094509 68 251 0.0 0.0 0.00 0.00 0.00 73 1007.8
20260901093006 67 253 0.0 0.0 0.00 0.00 0.00 72 1007.8
20260901091506 67 220 0.0 0.0 0.00 0.00 0.00 73 1007.8
20260901090007 67 203 0.0 0.0 0.00 0.00 0.00 75 1007.8
20260901084505 65 207 0.0 0.0 0.00 0.00 0.00 77 1007.8
20260901083006 67 60 0.0 0.0 0.00 0.00 0.00 78 1007.7
20260901081503 67 161 0.0 0.0 0.00 0.00 0.00 79 1007.6
20260901080100 65 182 0.0 0.0 0.00 0.00 0.00 83 1007.5
20260901074609 64 223 0.0 0.0 0.00 0.00 0.00 85 1007.6
20260901073059 64 225 0.0 0.0 0.00 0.00 0.00 86 1007.5
20260901071555 64 125 0.0 0.0 0.00 0.00 0.00 89 1007.5
20260901070055 63 125 0.0 0.0 0.00 0.00 0.00 93 1007.4
20260901064551 62 125 0.0 0.0 0.00 0.00 0.00 94 1007.3
20260901063048 60 126 0.0 0.0 0.00 0.00 0.00 95 1007.3
20260901061544 58 126 0.0 0.0 0.00 0.00 0.00 94 1007.3
20260901060043 57 126 0.0 0.0 0.00 0.00 0.00 94 1007.1
20260901054542 57 125 0.0 0.0 0.00 0.00 0.00 94 1007.1
20260901053050 57 125 0.0 0.0 0.00 0.00 0.00 94 1007.1
20260901051541 57 126 0.0 0.0 0.00 0.00 0.00 94 1007.1
20260901050041 56 126 0.0 0.0 0.00 0.00 0.00 94 1007.1
20260901044540 56 125 0.0 0.0 0.00 0.00 0.00 94 1006.9
20260901043039 56 126 0.0 0.0 0.00 0.00 0.00 93 1006.8
20260901041543 56 126 0.0 0.0 0.00 0.00 0.00 93 1006.6
20260901040043 57 125 0.0 0.0 0.00 0.00 0.00 93 1006.5
20260901034536 58 126 0.0 0.0 0.00 0.00 0.00 93 1006.4
20260901033035 58 125 0.0 0.0 0.00 0.00 0.00 93 1006.4
20260901031534 58 125 0.0 0.0 0.00 0.00 0.00 93 1006.4
20260901030034 58 123 0.0 0.0 0.00 0.00 0.00 93 1006.3
20260901024533 58 124 0.0 0.0 0.00 0.00 0.00 93 1006.2
20260901023032 58 125 0.0 0.0 0.00 0.00 0.00 93 1006.2
20260901021531 58 125 0.0 0.0 0.00 0.00 0.00 93 1006.1
20260901020029 58 125 0.0 0.0 0.00 0.00 0.00 93 1006.1
20260901014529 58 124 0.0 0.0 0.00 0.00 0.00 93 1006.1
20260901013043 58 125 0.0 0.0 0.00 0.00 0.00 93 1006.0
20260901011536 58 125 0.0 0.0 0.00 0.00 0.00 93 1006.0
20260901010028 58 126 0.0 0.0 0.00 0.00 0.00 93 1005.9
20260901004528 58 126 0.0 0.0 0.00 0.00 0.00 93 1005.9
20260901003027 58 126 0.0 0.0 0.00 0.00 0.00 93 1005.8
20260901001532 57 125 0.0 0.0 0.00 0.00 0.00 93 1005.8
20260901000030 58 124 0.0 0.0 0.00 0.00 0.00 93 1005.8
20260831234526 58 123 0.0 0.0 0.00 0.00 0.00 92 1005.8
20260831233026 58 126 0.0 0.0 0.00 0.00 0.00 93 1005.7
20260831231525 58 126 0.0 0.0 0.00 0.00 0.00 93 1005.8
20260831230025 58 124 0.0 0.0 0.00 0.00 0.00 92 1005.8
20260831224525 58 126 0.0 0.0 0.00 0.00 0.00 92 1005.7
20260831223026 58 125 0.0 0.0 0.00 0.00 0.00 92 1005.6
20260831221522 58 125 0.0 0.0 0.00 0.00 0.00 92 1005.6
20260831220022 58 125 0.0 0.0 0.00 0.00 0.00 92 1005.6
20260831214525 59 125 0.0 0.0 0.00 0.00 0.00 92 1005.6
20260831213022 59 125 0.0 0.0 0.00 0.00 0.00 92 1005.6
20260831211519 59 126 0.0 0.0 0.00 0.00 0.00 92 1005.6
20260831210021 59 126 0.0 0.0 0.00 0.00 0.00 92 1005.6
20260831204520 59 126 0.0 0.0 0.00 0.00 0.00 91 1005.5
20260831203020 59 125 0.0 0.0 0.00 0.00 0.00 91 1005.5
20260831201521 59 125 0.0 0.0 0.00 0.00 0.00 91 1005.4
20260831200033 59 125 0.0 0.0 0.00 0.00 0.00 91 1005.5
20260831194525 59 126 0.0 0.0 0.00 0.00 0.00 91 1005.6
20260831193018 59 127 0.0 0.0 0.00 0.00 0.00 91 1005.5
20260831191521 59 126 0.0 0.0 0.00 0.00 0.00 91 1005.4
20260831190031 60 133 0.0 0.0 0.00 0.00 0.00 91 1005.2
20260831184519 60 144 0.0 0.0 0.00 0.00 0.00 90 1005.3
20260831183019 60 143 0.0 0.0 0.00 0.00 0.00 90 1005.3
20260831181526 60 143 0.0 0.0 0.00 0.00 0.00 90 1005.1
20260831180017 61 143 0.0 0.0 0.00 0.00 0.00 90 1005.1
20260831174517 61 144 0.0 0.0 0.00 0.00 0.00 89 1005.1
20260831173017 61 144 0.0 0.0 0.00 0.00 0.00 89 1005.1
20260831171517 61 144 0.0 0.0 0.00 0.00 0.00 88 1005.1
20260831170017 61 169 0.0 0.0 0.00 0.00 0.00 88 1005.1
20260831164519 61 171 0.0 0.0 0.00 0.00 0.00 87 1005.1
20260831163019 62 175 0.0 0.0 0.00 0.00 0.00 84 1005.1
20260831161515 63 176 0.0 0.0 0.00 0.00 0.00 81 1005.1
20260831160015 64 152 0.0 0.0 0.00 0.00 0.00 78 1005.0
20260831154515 65 165 0.0 0.0 0.00 0.00 0.00 76 1004.8
20260831153013 67 180 0.0 0.0 0.00 0.00 0.00 76 1004.8
20260831151514 69 226 0.0 0.0 0.00 0.00 0.00 73 1004.7
20260831150014 69 203 0.0 0.0 0.00 0.00 0.00 71 1004.7
20260831144513 70 194 0.0 0.0 0.00 0.00 0.00 70 1004.8
20260831143015 68 360 0.0 0.0 0.00 0.00 0.00 70 1004.8
20260831141508 68 132 0.0 0.0 0.00 0.00 0.00 72 1005.0
20260831140024 67 200 0.0 0.0 0.00 0.00 0.00 71 1005.1
20260831134509 68 236 0.0 0.0 0.00 0.00 0.00 70 1005.1
20260831133008 67 191 0.0 0.0 0.00 0.00 0.00 71 1005.3
20260831131507 66 192 0.0 0.0 0.00 0.00 0.00 75 1005.4
20260831130008 65 360 0.0 0.0 0.00 0.00 0.00 76 1005.4
20260831124509 65 200 0.0 0.0 0.00 0.00 0.00 75 1005.4
20260831123007 66 207 0.0 0.0 0.00 0.00 0.00 73 1005.4
20260831121509 66 244 0.0 0.0 0.00 0.00 0.00 73 1005.3
20260831120015 65 203 0.0 0.0 0.00 0.00 0.00 75 1005.4